WC1Z Weather Reports


Display with metric or nautical units.
time (UTC)temp
F
wind
direction
speed
MPH
gust
MPH
rain 1hr
in
rain 24hr
in
rain mn
in
humidity
%
barometer
mb
20260903033702 74 170 2.0 3.0 0.04 0.00 0.49 94 1014.8
20260903033200 75 182 2.0 2.0 0.04 0.00 0.48 94 1014.8
20260903032700 74 170 1.0 2.0 0.04 0.00 0.48 94 1014.9
20260903032203 75 118 1.0 1.0 0.04 0.00 0.47 94 1015.0
20260903031700 75 177 1.0 2.0 0.04 0.00 0.47 94 1015.0
20260903031203 75 191 0.0 1.0 0.05 0.00 0.47 94 1015.0
20260903030700 75 91 0.0 1.0 0.05 0.00 0.47 94 1015.1
20260903030200 75 91 1.0 1.0 0.05 0.00 0.46 94 1015.1
20260903025700 75 101 1.0 1.0 0.05 0.00 0.48 94 1015.2
20260903025200 75 162 0.0 1.0 0.04 0.00 0.48 94 1015.2
20260903024700 75 196 1.0 2.0 0.04 0.00 0.47 94 1015.1
20260903024202 75 360 0.0 0.0 0.04 0.00 0.47 94 1015.0
20260903023701 75 104 1.0 1.0 0.05 0.00 0.46 94 1014.9
20260903023200 75 95 1.0 1.0 0.06 0.00 0.45 94 1014.9
20260903022700 75 360 0.0 0.0 0.06 0.00 0.45 94 1015.0
20260903022201 75 134 1.0 2.0 0.06 0.00 0.44 94 1014.9
20260903021700 75 119 0.0 1.0 0.07 0.00 0.44 94 1014.8
20260903021200 75 1 0.0 0.0 0.07 0.00 0.44 94 1014.8
20260903020701 75 196 1.0 2.0 0.07 0.00 0.43 94 1014.7
20260903020201 75 182 1.0 2.0 0.06 0.00 0.42 94 1014.7
20260903015700 75 360 0.0 0.0 0.06 0.00 0.44 94 1014.7
20260903015200 75 360 0.0 0.0 0.06 0.00 0.43 94 1014.6
20260903014701 74 360 0.0 0.0 0.06 0.00 0.43 94 1014.5
20260903014201 74 339 1.0 2.0 0.04 0.00 0.43 94 1014.5
20260903013700 74 124 1.0 1.0 0.04 0.00 0.43 94 1014.5
20260903013200 74 37 0.0 1.0 0.05 0.00 0.41 94 1014.4
20260903012701 74 4 1.0 1.0 0.09 0.00 0.41 93 1014.4
20260903012200 74 80 1.0 1.0 0.09 0.00 0.40 93 1014.4
20260903011701 74 360 0.0 0.0 0.19 0.00 0.43 93 1014.3
20260903011201 74 360 0.0 0.0 0.22 0.00 0.42 93 1014.3
20260903010700 74 247 1.0 2.0 0.22 0.00 0.41 93 1014.2
20260903010201 74 293 0.0 1.0 0.23 0.00 0.40 93 1014.2
20260903005700 74 202 1.0 2.0 0.25 0.00 0.41 93 1014.2
20260903005200 74 360 0.0 0.0 0.25 0.00 0.41 93 1014.2
20260903004700 74 102 1.0 2.0 0.29 0.00 0.41 93 1014.3
20260903004200 74 40 1.0 3.0 0.27 0.00 0.41 93 1014.5
20260903003700 74 81 1.0 2.0 0.26 0.00 0.41 93 1014.6
20260903003202 74 83 2.0 3.0 0.26 0.00 0.38 93 1014.6
20260903002701 74 77 4.0 6.0 0.26 0.00 0.38 92 1014.7
20260903002200 74 118 2.0 3.0 0.26 0.00 0.36 92 1014.8
20260903001700 74 95 3.0 4.0 0.25 0.00 0.37 91 1014.9
20260903001200 75 95 3.0 3.0 0.20 0.00 0.32 91 1014.9
20260903000700 75 150 4.0 6.0 0.08 0.00 0.24 90 1015.0
20260903000200 76 145 3.0 5.0 0.07 0.00 0.19 90 1015.0
20260902235700 77 171 4.0 5.0 0.07 0.00 0.19 89 1015.0
20260902235200 78 168 4.0 5.0 0.06 0.00 0.18 87 1015.0
20260902234701 80 179 6.0 7.0 0.04 0.00 0.17 84 1014.9
20260902234200 82 185 7.0 11.0 0.00 0.00 0.14 77 1015.2
20260902233700 82 207 5.0 8.0 0.00 0.00 0.12 77 1015.0
20260902233200 83 193 5.0 7.0 0.00 0.00 0.12 79 1015.0
20260902232700 83 204 2.0 5.0 0.00 0.00 0.12 77 1014.9
20260902232200 83 154 2.0 4.0 0.00 0.00 0.12 77 1014.5
20260902231700 83 123 1.0 3.0 0.00 0.00 0.12 77 1014.3
20260902231159 83 150 2.0 3.0 0.00 0.00 0.12 77 1014.3
20260902230700 83 102 3.0 5.0 0.00 0.00 0.12 77 1014.2
20260902230200 83 123 4.0 7.0 0.00 0.00 0.12 77 1014.1
20260902225700 83 131 4.0 7.0 0.00 0.00 0.12 77 1014.1
20260902225202 83 111 2.0 4.0 0.00 0.00 0.12 77 1014.1
20260902224701 83 157 3.0 5.0 0.00 0.00 0.12 77 1014.1
20260902224201 83 102 2.0 5.0 0.00 0.00 0.12 77 1014.0
20260902223701 83 130 3.0 3.0 0.00 0.00 0.12 77 1013.9
20260902223200 83 158 3.0 4.0 0.00 0.00 0.12 77 1013.9
20260902222701 83 176 2.0 5.0 0.00 0.00 0.12 77 1013.9
20260902222200 83 155 4.0 6.0 0.00 0.00 0.12 76 1013.8
20260902221700 83 123 3.0 4.0 0.00 0.00 0.12 76 1013.8
20260902221201 83 153 2.0 4.0 0.00 0.00 0.12 76 1013.8
20260902220700 83 165 3.0 5.0 0.00 0.00 0.12 76 1013.9
20260902220200 83 150 3.0 4.0 0.00 0.00 0.12 76 1013.9
20260902215700 83 166 4.0 5.0 0.00 0.00 0.12 75 1013.9
20260902215200 83 174 7.0 10.0 0.00 0.00 0.12 75 1013.9
20260902214228 83 117 4.0 6.0 0.00 0.00 0.12 75 1014.0
20260902213700 83 132 2.0 5.0 0.00 0.00 0.12 76 1014.0
20260902213200 83 172 4.0 5.0 0.00 0.00 0.12 75 1014.0
20260902212700 83 109 4.0 9.0 0.00 0.00 0.12 75 1014.0
20260902212201 83 130 6.0 9.0 0.00 0.00 0.12 76 1014.0
20260902211700 83 160 4.0 5.0 0.00 0.00 0.12 76 1014.0
20260902210700 83 97 9.0 14.0 0.00 0.00 0.12 76 1014.2
20260902210200 83 103 4.0 9.0 0.00 0.00 0.12 76 1014.3
20260902205702 83 150 4.0 10.0 0.00 0.00 0.12 76 1014.4
20260902205201 83 92 5.0 10.0 0.00 0.00 0.12 76 1014.5
20260902204701 83 159 6.0 8.0 0.00 0.00 0.12 76 1014.8
20260902204201 83 164 4.0 5.0 0.00 0.00 0.12 76 1014.8
20260902203700 83 169 4.0 6.0 0.00 0.00 0.12 76 1014.9
20260902203201 83 112 4.0 7.0 0.00 0.00 0.12 75 1015.0
20260902202700 83 182 6.0 8.0 0.00 0.00 0.12 75 1015.2
20260902202200 83 156 5.0 6.0 0.00 0.00 0.12 74 1015.2
20260902201702 83 104 5.0 9.0 0.00 0.00 0.12 74 1015.3
20260902201200 83 156 2.0 4.0 0.00 0.00 0.12 74 1015.2
20260902200700 83 165 3.0 4.0 0.00 0.00 0.12 74 1015.2
20260902200200 83 165 4.0 6.0 0.00 0.00 0.12 74 1015.2
20260902195700 83 158 4.0 5.0 0.00 0.00 0.12 74 1015.3
20260902195201 83 146 3.0 4.0 0.00 0.00 0.12 75 1015.3
20260902194701 83 137 3.0 4.0 0.00 0.00 0.12 74 1015.2
20260902194200 82 191 4.0 5.0 0.00 0.00 0.12 75 1015.2
20260902193700 82 151 5.0 7.0 0.00 0.00 0.12 75 1015.2
20260902193201 82 161 7.0 10.0 0.00 0.00 0.12 77 1015.3
20260902192700 82 151 3.0 5.0 0.00 0.00 0.12 77 1015.2
20260902192200 82 152 4.0 6.0 0.00 0.00 0.12 77 1015.3
20260902191700 82 161 4.0 8.0 0.00 0.00 0.12 78 1015.2
20260902191200 82 164 4.0 6.0 0.00 0.00 0.12 78 1015.4
20260902190700 82 142 6.0 7.0 0.00 0.00 0.12 77 1015.4
20260902190201 81 159 6.0 9.0 0.00 0.00 0.12 77 1015.4
20260902185701 81 192 5.0 7.0 0.00 0.00 0.12 79 1015.2
20260902185200 81 183 6.0 9.0 0.00 0.00 0.12 80 1015.2
20260902183200 80 170 7.0 9.0 0.00 0.00 0.12 81 1015.4
20260902182701 80 169 4.0 6.0 0.00 0.00 0.12 82 1015.4
20260902182201 80 164 5.0 6.0 0.00 0.00 0.12 84 1015.3
20260902181703 80 177 6.0 7.0 0.00 0.00 0.12 83 1015.3
20260902181201 80 149 3.0 5.0 0.00 0.00 0.12 83 1015.4
20260902180703 80 170 4.0 6.0 0.00 0.00 0.12 84 1015.6
20260902180200 80 133 4.0 6.0 0.00 0.00 0.12 84 1015.8
20260902175701 79 165 5.0 6.0 0.00 0.00 0.12 85 1015.9
20260902175200 79 145 3.0 4.0 0.00 0.00 0.12 86 1016.1
20260902174700 79 167 4.0 7.0 0.00 0.00 0.12 86 1016.1
20260902174200 79 165 4.0 5.0 0.00 0.00 0.12 86 1016.1
20260902173701 79 167 4.0 6.0 0.00 0.00 0.12 87 1016.2
20260902173201 78 109 2.0 3.0 0.00 0.00 0.12 87 1016.2
20260902172701 78 121 2.0 4.0 0.00 0.00 0.12 88 1016.3
20260902172200 78 125 3.0 5.0 0.00 0.00 0.12 88 1016.2
20260902171701 78 135 3.0 5.0 0.00 0.00 0.12 88 1016.3
20260902171200 78 87 4.0 6.0 0.00 0.00 0.12 89 1016.4
20260902170700 78 130 5.0 6.0 0.00 0.00 0.12 89 1016.5
20260902170201 77 165 2.0 3.0 0.00 0.00 0.12 90 1016.4
20260902165700 77 115 4.0 5.0 0.00 0.00 0.12 90 1016.4
20260902165201 77 138 3.0 5.0 0.00 0.00 0.12 90 1016.4
20260902164701 77 166 4.0 5.0 0.00 0.00 0.12 90 1016.4
20260902164200 77 144 4.0 6.0 0.00 0.00 0.12 90 1016.5
20260902163701 77 161 6.0 9.0 0.00 0.00 0.12 90 1016.3
20260902163200 77 158 5.0 6.0 0.00 0.00 0.12 91 1016.3
20260902162700 77 164 4.0 5.0 0.00 0.00 0.12 91 1016.4
20260902162200 77 167 4.0 5.0 0.00 0.00 0.12 91 1016.5
20260902161703 77 168 4.0 6.0 0.00 0.00 0.12 91 1016.6
20260902161205 77 160 4.0 6.0 0.00 0.00 0.12 91 1016.7
20260902160701 77 106 5.0 6.0 0.00 0.00 0.12 91 1016.6
20260902160200 77 145 2.0 4.0 0.00 0.00 0.12 92 1016.6
20260902155700 77 169 4.0 5.0 0.00 0.00 0.11 92 1016.5
20260902155200 77 108 4.0 4.0 0.00 0.00 0.11 92 1016.4
20260902154701 77 135 3.0 4.0 0.00 0.00 0.11 93 1016.4
20260902154200 77 141 3.0 4.0 0.00 0.00 0.11 93 1016.4
20260902153701 77 137 2.0 3.0 0.00 0.00 0.11 93 1016.4
20260902153201 76 137 2.0 2.0 0.00 0.00 0.11 93 1016.3
20260902152701 76 132 2.0 2.0 0.01 0.00 0.11 93 1016.2
20260902152202 76 128 2.0 2.0 0.01 0.00 0.11 93 1016.3
20260902151700 76 120 3.0 4.0 0.02 0.00 0.12 93 1016.2
20260902151200 76 107 2.0 3.0 0.02 0.00 0.12 94 1016.2
20260902150701 76 115 2.0 4.0 0.02 0.00 0.12 94 1016.0
20260902145719 76 97 2.0 3.0 0.02 0.00 0.12 94 1015.9
20260902145200 76 116 2.0 3.0 0.02 0.00 0.12 93 1015.8
20260902144706 76 107 1.0 2.0 0.05 0.00 0.12 93 1015.8
20260902144200 76 112 2.0 4.0 0.05 0.00 0.12 93 1015.8
20260902143701 75 162 4.0 6.0 0.07 0.00 0.12 93 1015.8
20260902143201 75 159 4.0 6.0 0.11 0.00 0.11 93 1015.8
20260902142704 75 94 2.0 3.0 0.11 0.00 0.11 93 1015.8
20260902142200 75 132 2.0 3.0 0.11 0.00 0.11 93 1015.9
20260902141701 75 163 4.0 6.0 0.10 0.00 0.12 93 1016.0
20260902141201 75 157 2.0 6.0 0.10 0.00 0.11 93 1015.9
20260902140701 75 176 5.0 8.0 0.10 0.00 0.10 92 1015.9
20260902140200 75 144 5.0 6.0 0.10 0.00 0.10 92 1015.9
20260902135700 75 154 5.0 7.0 0.10 0.00 0.10 92 1015.9
20260902135202 76 157 3.0 4.0 0.07 0.00 0.10 91 1015.8
20260902134701 76 181 3.0 5.0 0.07 0.00 0.08 91 1015.8
20260902134200 76 179 7.0 10.0 0.06 0.00 0.07 90 1015.7
20260902133700 77 188 7.0 11.0 0.05 0.00 0.05 89 1015.7
20260902133201 79 186 4.0 6.0 0.00 0.00 0.05 87 1015.7
20260902132700 80 189 5.0 9.0 0.00 0.00 0.00 86 1015.6
20260902132201 80 138 3.0 5.0 0.00 0.00 0.00 88 1015.1
20260902131700 80 107 5.0 8.0 0.00 0.00 0.00 88 1014.9
20260902131200 80 101 6.0 9.0 0.00 0.00 0.00 89 1014.8
20260902130700 80 112 4.0 6.0 0.00 0.00 0.00 89 1014.8
20260902130201 79 106 6.0 9.0 0.00 0.00 0.00 90 1014.8
20260902125700 79 90 5.0 9.0 0.00 0.00 0.00 90 1014.8
20260902125202 79 70 9.0 12.0 0.00 0.00 0.00 90 1014.7
20260902124700 79 84 6.0 9.0 0.00 0.00 0.00 90 1014.8
20260902124200 79 97 7.0 9.0 0.00 0.00 0.00 90 1014.8
20260902123703 79 81 6.0 12.0 0.00 0.00 0.00 90 1014.8
20260902123205 79 74 5.0 8.0 0.00 0.00 0.00 90 1014.8
20260902122700 79 83 6.0 8.0 0.00 0.00 0.00 90 1014.8
20260902122200 79 86 6.0 9.0 0.00 0.00 0.00 90 1014.8
20260902121701 79 70 8.0 9.0 0.00 0.00 0.00 90 1014.7
20260902121201 79 92 5.0 5.0 0.00 0.00 0.00 90 1014.8
20260902120701 79 82 5.0 6.0 0.00 0.00 0.00 90 1014.7
20260902120203 79 101 4.0 5.0 0.00 0.00 0.00 90 1014.7
20260902115700 79 94 5.0 6.0 0.00 0.00 0.00 90 1014.7
20260902115200 79 89 6.0 7.0 0.00 0.00 0.00 90 1014.8
20260902114700 79 95 4.0 8.0 0.00 0.00 0.00 90 1014.8
20260902114200 79 86 6.0 8.0 0.00 0.00 0.00 90 1014.8
20260902113700 79 90 7.0 8.0 0.00 0.00 0.00 90 1014.7
20260902113200 79 105 4.0 5.0 0.00 0.00 0.00 90 1014.7
20260902112700 79 102 4.0 5.0 0.00 0.00 0.00 90 1014.7
20260902112201 79 82 6.0 9.0 0.00 0.00 0.00 90 1014.6
20260902111701 79 106 4.0 7.0 0.00 0.00 0.00 91 1014.6
20260902111200 79 94 5.0 7.0 0.00 0.00 0.00 91 1014.6
20260902110700 79 101 4.0 6.0 0.00 0.00 0.00 91 1014.5
20260902110200 79 94 4.0 5.0 0.00 0.00 0.00 91 1014.5
20260902105701 78 105 4.0 6.0 0.00 0.00 0.00 91 1014.5
20260902105201 78 101 4.0 5.0 0.00 0.00 0.00 91 1014.5
20260902104700 78 79 6.0 7.0 0.00 0.00 0.00 91 1014.5
20260902104202 78 97 3.0 5.0 0.00 0.00 0.00 91 1014.4
20260902103701 78 109 3.0 4.0 0.00 0.00 0.00 91 1014.4
20260902103200 78 107 4.0 6.0 0.00 0.00 0.00 91 1014.4
20260902102200 78 106 3.0 4.0 0.00 0.00 0.00 90 1014.4
20260902101700 78 111 4.0 5.0 0.00 0.00 0.00 90 1014.4
20260902101201 78 109 3.0 4.0 0.00 0.00 0.00 90 1014.5
20260902100700 78 81 5.0 7.0 0.00 0.00 0.00 90 1014.4
20260902100201 78 89 4.0 7.0 0.00 0.00 0.00 90 1014.5
20260902095200 78 84 4.0 6.0 0.00 0.00 0.00 90 1014.5
20260902094201 78 86 4.0 6.0 0.00 0.00 0.00 90 1014.5
20260902093700 78 85 4.0 5.0 0.00 0.00 0.00 90 1014.5
20260902093201 78 99 4.0 4.0 0.00 0.00 0.00 89 1014.5
20260902092702 79 117 3.0 4.0 0.00 0.00 0.00 89 1014.6
20260902092200 79 104 3.0 4.0 0.00 0.00 0.00 89 1014.6
20260902091700 79 96 4.0 4.0 0.00 0.00 0.00 89 1014.6
20260902091200 79 110 3.0 5.0 0.00 0.00 0.00 89 1014.5
20260902090700 79 97 4.0 6.0 0.00 0.00 0.00 89 1014.5
20260902090200 79 101 3.0 5.0 0.00 0.00 0.00 88 1014.4
20260902085700 79 100 3.0 4.0 0.00 0.00 0.00 88 1014.4
20260902084200 79 76 4.0 6.0 0.00 0.00 0.00 88 1014.5
20260902082659 79 106 4.0 6.0 0.00 0.00 0.00 88 1014.6
20260902082201 79 103 5.0 8.0 0.00 0.00 0.00 88 1014.6
20260902081701 79 108 3.0 5.0 0.00 0.00 0.00 87 1014.6
20260902081200 79 96 3.0 5.0 0.00 0.00 0.00 87 1014.6
20260902080707 79 113 4.0 7.0 0.00 0.00 0.00 87 1014.6
20260902075700 80 98 3.0 4.0 0.00 0.00 0.00 87 1014.6
20260902075200 80 121 4.0 5.0 0.00 0.00 0.00 87 1014.6
20260902074701 79 106 3.0 5.0 0.00 0.00 0.00 87 1014.5
20260902074200 79 102 4.0 6.0 0.00 0.00 0.00 87 1014.5
20260902073701 79 99 3.0 4.0 0.00 0.00 0.00 87 1014.6
20260902073200 79 103 3.0 4.0 0.00 0.00 0.00 86 1014.7
20260902072701 79 104 4.0 5.0 0.00 0.00 0.00 86 1014.7
20260902072200 79 112 4.0 5.0 0.00 0.00 0.00 86 1014.8
20260902071700 80 78 4.0 5.0 0.00 0.00 0.00 86 1014.8
20260902071200 80 107 6.0 6.0 0.00 0.00 0.00 86 1014.9
20260902070212 79 105 5.0 6.0 0.00 0.00 0.00 86 1014.9
20260902065700 79 94 3.0 3.0 0.00 0.00 0.00 86 1014.9
20260902065203 80 122 1.0 2.0 0.00 0.00 0.00 86 1014.9
20260902064701 80 120 1.0 3.0 0.00 0.00 0.00 86 1014.8
20260902064200 80 120 3.0 4.0 0.00 0.00 0.00 86 1014.7
20260902063700 80 119 3.0 5.0 0.00 0.00 0.00 85 1014.8
20260902063200 80 118 4.0 6.0 0.00 0.00 0.00 85 1014.9
20260902062700 80 114 4.0 5.0 0.00 0.00 0.00 85 1014.9
20260902062200 80 132 3.0 5.0 0.00 0.00 0.00 85 1015.0
20260902061700 80 123 4.0 5.0 0.00 0.00 0.00 85 1015.0
20260902061200 80 103 4.0 5.0 0.00 0.00 0.00 85 1015.1
20260902060700 80 95 4.0 4.0 0.00 0.00 0.00 85 1015.1
20260902060201 80 116 2.0 2.0 0.00 0.00 0.00 84 1015.2
20260902055701 80 130 4.0 8.0 0.00 0.00 0.00 84 1015.2
20260902055202 80 97 4.0 7.0 0.00 0.00 0.00 84 1015.1
20260902054701 80 148 3.0 5.0 0.00 0.00 0.00 84 1015.2
20260902054200 80 110 4.0 5.0 0.00 0.00 0.00 84 1015.2
20260902053700 80 104 3.0 4.0 0.00 0.00 0.00 84 1015.2
20260902053200 80 142 3.0 4.0 0.00 0.00 0.00 84 1015.3
20260902052700 80 114 4.0 4.0 0.00 0.00 0.00 83 1015.3
20260902052201 80 105 5.0 9.0 0.00 0.00 0.00 83 1015.3
20260902051700 80 105 1.0 2.0 0.00 0.00 0.00 83 1015.3
20260902051200 80 114 4.0 5.0 0.00 0.00 0.00 83 1015.3
20260902050700 80 124 3.0 4.0 0.00 0.00 0.00 83 1015.3
20260902050203 80 120 1.0 2.0 0.00 0.00 0.00 82 1015.2
20260902045700 80 129 1.0 2.0 0.00 0.00 0.00 82 1015.2
20260902045200 80 131 3.0 4.0 0.00 0.00 0.00 82 1015.2
20260902044701 80 118 3.0 5.0 0.00 0.00 0.00 82 1015.1
20260902044200 81 113 4.0 4.0 0.00 0.00 0.00 82 1015.1
20260902043701 81 121 3.0 4.0 0.00 0.00 0.00 81 1015.1
20260902043202 81 84 3.0 6.0 0.00 0.00 0.00 81 1015.0
20260902042701 81 118 3.0 3.0 0.00 0.00 0.00 81 1015.1
20260902042201 81 101 4.0 5.0 0.00 0.00 0.00 81 1015.3
20260902041701 81 112 4.0 5.0 0.00 0.00 0.00 80 1015.3
20260902041200 81 97 3.0 4.0 0.00 0.00 0.00 80 1015.3
20260902040702 81 131 4.0 5.0 0.00 0.00 0.00 80 1015.3
20260902040202 81 117 3.0 4.0 0.00 0.00 0.00 80 1015.4
20260902035700 81 93 3.0 4.0 0.00 0.00 0.00 79 1015.3
20260902035201 81 107 4.0 5.0 0.00 0.00 0.00 79 1015.2
20260902034700 81 154 3.0 5.0 0.00 0.00 0.00 79 1015.2
20260902034200 82 101 4.0 4.0 0.00 0.00 0.00 79 1015.1